Total_Precipitation_Accumulation
0.09 0.17 0.20 0.21 0.20 0.18 0.13 0.12 0.17 0.22 0.35 0.50 0.60 0.73 0.66 0.65 0.71 0.73 0.60 0.53 0.43 0.39 0.49 0.61 0.67 0.68 0.73 0.81 0.89 1.02 1.03 0.99 0.99 1.01 1.03 1.05 1.07 1.07 1.09 1.15 1.18 1.35 1.39 1.49
0.11 0.14 0.14 0.16 0.18 0.15 0.11 0.09 0.10 0.18 0.36 0.52 0.66 0.68 0.64 0.55 0.53 0.67 0.61 0.53 0.50 0.48 0.56 0.61 0.62 0.62 0.60 0.63 0.75 0.92 0.98 1.03 1.05 1.05 0.99 1.03 1.04 1.02 1.06 1.16 1.27 1.40 1.44 1.55
0.21 0.17 0.18 0.25 0.20 0.17 0.14 0.12 0.13 0.23 0.37 0.53 0.67 0.59 0.63 0.59 0.50 0.50 0.48 0.47 0.54 0.57 0.61 0.60 0.59 0.55 0.55 0.55 0.67 0.94 1.02 1.00 1.08 1.16 1.08 1.14 1.17 1.16 1.19 1.26 1.36 1.43 1.55 1.59
0.28 0.31 0.38 0.29 0.23 0.22 0.24 0.25 0.23 0.27 0.38 0.60 0.77 0.66 0.60 0.59 0.57 0.53 0.43 0.45 0.53 0.54 0.54 0.56 0.56 0.56 0.54 0.55 0.63 0.85 1.01 1.05 1.22 1.36 1.27 1.28 1.29 1.32 1.38 1.45 1.49 1.59 1.64 1.57
0.42 0.44 0.46 0.38 0.34 0.36 0.44 0.53 0.45 0.46 0.58 0.64 0.60 0.58 0.61 0.56 0.51 0.50 0.50 0.54 0.53 0.56 0.58 0.63 0.68 0.66 0.63 0.72 0.84 0.97 1.08 1.19 1.38 1.53 1.59 1.57 1.53 1.62 1.67 1.70 1.75 1.82 1.89 1.86
0.57 0.64 0.72 0.65 0.52 0.48 0.60 0.95 0.77 0.62 0.64 0.64 0.61 0.74 0.75 0.56 0.51 0.50 0.53 0.59 0.63 0.70 0.70 0.70 0.77 0.77 0.79 0.89 1.07 1.20 1.23 1.26 1.34 1.51 1.61 1.65 1.65 1.81 1.95 2.00 2.00 2.03 1.94 1.81
0.64 0.74 0.73 0.65 0.58 0.62 1.06 1.39 0.98 0.84 0.86 0.90 0.87 0.81 0.70 0.61 0.61 0.58 0.53 0.55 0.58 0.62 0.69 0.73 0.79 0.86 0.97 1.05 1.16 1.19 1.19 1.22 1.29 1.51 1.77 1.81 1.87 1.94 2.05 2.13 2.18 2.19 2.09 1.98
0.75 0.97 1.07 0.70 0.63 0.96 1.28 1.19 1.21 1.17 1.16 1.10 0.96 0.77 0.65 0.61 0.64 0.59 0.57 0.61 0.61 0.60 0.66 0.73 0.85 1.00 1.09 1.11 1.15 1.21 1.22 1.26 1.37 1.60 1.70 1.80 1.95 2.00 2.15 2.27 2.28 2.25 2.24 2.11
0.96 1.16 1.06 0.84 0.91 0.95 1.01 1.13 1.19 1.12 1.12 1.09 1.04 0.91 0.78 0.71 0.68 0.67 0.66 0.66 0.72 0.71 0.72 0.77 0.89 1.09 1.22 1.22 1.22 1.21 1.18 1.21 1.31 1.45 1.54 1.67 1.75 1.74 1.83 1.96 1.98 2.01 2.04 2.00
1.34 1.33 1.14 0.98 0.92 0.92 0.88 0.94 0.95 0.90 0.86 0.85 0.86 0.83 0.75 0.71 0.74 0.77 0.81 0.77 0.77 0.76 0.78 0.81 0.86 1.04 1.17 1.17 1.18 1.18 1.14 1.10 1.19 1.35 1.43 1.50 1.62 1.64 1.73 1.80 1.86 1.93 1.95 1.92
1.64 1.61 1.40 1.26 1.10 1.08 0.95 0.92 0.90 0.85 0.81 0.75 0.66 0.66 0.65 0.59 0.56 0.59 0.65 0.68 0.68 0.69 0.74 0.75 0.80 0.98 1.13 1.15 1.16 1.20 1.16 1.11 1.17 1.28 1.37 1.45 1.56 1.65 1.67 1.70 1.68 1.71 1.75 1.72
1.69 1.56 1.47 1.46 1.16 1.10 1.15 1.03 0.89 0.86 0.79 0.72 0.63 0.57 0.56 0.55 0.51 0.51 0.56 0.63 0.66 0.70 0.70 0.66 0.72 0.84 0.95 1.12 1.26 1.31 1.23 1.15 1.13 1.14 1.21 1.28 1.36 1.37 1.30 1.27 1.26 1.24 1.28 1.21
1.14 1.23 1.32 1.43 1.27 1.11 1.12 1.05 0.96 0.90 0.84 0.75 0.66 0.56 0.46 0.42 0.42 0.47 0.57 0.67 0.73 0.77 0.75 0.73 0.75 0.82 0.91 1.07 1.30 1.46 1.42 1.26 1.13 1.06 1.08 1.12 1.23 1.31 1.33 1.22 1.14 1.07 1.04 0.94
1.14 1.25 1.34 1.30 1.30 1.25 1.10 1.03 0.96 0.91 0.83 0.74 0.68 0.58 0.47 0.43 0.41 0.49 0.64 0.75 0.77 0.78 0.79 0.79 0.81 0.87 0.96 1.11 1.28 1.37 1.36 1.25 1.10 1.03 1.02 1.00 1.05 1.15 1.22 1.28 1.26 1.10 0.94 0.84
1.26 1.23 1.23 1.19 1.17 1.23 1.19 1.12 0.99 0.91 0.80 0.75 0.70 0.64 0.56 0.51 0.51 0.57 0.65 0.82 0.96 0.98 0.89 0.84 0.88 0.91 0.94 1.07 1.19 1.24 1.22 1.13 1.03 0.99 1.00 0.93 0.86 0.93 1.01 1.08 1.18 1.15 0.98 0.88
1.15 1.09 1.07 1.11 1.16 1.14 1.08 1.09 1.01 0.92 0.75 0.69 0.68 0.65 0.60 0.57 0.58 0.62 0.71 0.89 1.16 1.27 1.15 1.01 0.94 0.92 0.93 1.04 1.11 1.05 0.99 0.90 0.87 0.89 0.88 0.85 0.83 0.87 0.96 1.05 1.13 1.12 1.00 0.87
1.01 0.96 0.94 0.97 0.99 1.04 0.99 0.92 0.87 0.79 0.70 0.66 0.64 0.61 0.59 0.62 0.69 0.81 0.90 0.99 1.06 1.09 1.09 1.05 0.93 0.87 0.91 1.01 1.06 0.96 0.83 0.72 0.62 0.65 0.74 0.79 0.83 0.91 1.02 1.09 1.12 1.04 0.88 0.73
0.77 0.77 0.80 0.81 0.79 0.85 0.87 0.77 0.70 0.66 0.62 0.63 0.62 0.60 0.62 0.70 0.89 1.07 1.09 1.06 1.02 0.90 0.84 0.85 0.82 0.80 0.88 0.93 1.00 0.96 0.81 0.67 0.55 0.55 0.62 0.66 0.77 0.90 0.98 0.98 0.93 0.87 0.79 0.69
0.59 0.63 0.66 0.68 0.69 0.66 0.66 0.66 0.66 0.63 0.57 0.57 0.61 0.63 0.64 0.72 0.92 1.13 1.14 1.20 1.18 1.01 0.78 0.65 0.67 0.67 0.76 0.82 0.90 0.91 0.74 0.57 0.45 0.43 0.47 0.52 0.64 0.81 0.87 0.81 0.73 0.71 0.70 0.68
0.53 0.53 0.54 0.53 0.54 0.55 0.50 0.48 0.48 0.53 0.53 0.56 0.63 0.68 0.72 0.77 0.93 1.11 1.18 1.20 1.13 0.96 0.73 0.57 0.53 0.52 0.58 0.71 0.78 0.75 0.61 0.47 0.36 0.32 0.36 0.45 0.59 0.76 0.76 0.68 0.64 0.66 0.67 0.69
0.48 0.48 0.47 0.47 0.49 0.48 0.45 0.43 0.43 0.49 0.56 0.57 0.62 0.72 0.79 0.82 0.92 1.09 1.29 1.27 0.99 0.74 0.60 0.56 0.50 0.47 0.52 0.66 0.69 0.63 0.54 0.45 0.35 0.30 0.33 0.46 0.64 0.74 0.68 0.61 0.60 0.61 0.58 0.62
0.49 0.49 0.47 0.46 0.47 0.48 0.47 0.48 0.49 0.54 0.63 0.63 0.61 0.65 0.75 0.85 0.90 0.94 1.03 1.17 1.02 0.79 0.56 0.48 0.46 0.49 0.55 0.65 0.62 0.54 0.50 0.47 0.40 0.36 0.39 0.51 0.64 0.68 0.63 0.59 0.62 0.59 0.58 0.60
0.50 0.47 0.47 0.44 0.44 0.45 0.45 0.48 0.50 0.61 0.74 0.74 0.70 0.67 0.73 0.82 0.90 1.05 1.02 0.91 0.89 0.81 0.59 0.46 0.43 0.49 0.55 0.60 0.59 0.51 0.51 0.48 0.42 0.40 0.43 0.49 0.55 0.58 0.61 0.62 0.63 0.59 0.58 0.58
0.49 0.44 0.45 0.44 0.44 0.47 0.52 0.53 0.53 0.59 0.68 0.66 0.58 0.54 0.62 0.75 0.76 0.76 0.85 0.91 0.86 0.80 0.62 0.50 0.41 0.41 0.48 0.50 0.54 0.56 0.59 0.52 0.43 0.39 0.40 0.46 0.53 0.58 0.64 0.68 0.68 0.64 0.62 0.58
0.49 0.47 0.46 0.47 0.52 0.57 0.59 0.62 0.66 0.67 0.73 0.67 0.55 0.46 0.48 0.62 0.74 0.68 0.68 0.73 0.77 0.72 0.61 0.54 0.48 0.49 0.50 0.56 0.61 0.62 0.58 0.47 0.40 0.38 0.41 0.50 0.54 0.58 0.64 0.65 0.62 0.64 0.65 0.65
0.55 0.52 0.50 0.51 0.54 0.57 0.61 0.70 0.78 0.81 0.90 0.85 0.65 0.48 0.43 0.48 0.56 0.61 0.66 0.70 0.74 0.76 0.63 0.54 0.50 0.53 0.55 0.60 0.61 0.56 0.49 0.44 0.42 0.43 0.47 0.52 0.54 0.57 0.61 0.62 0.58 0.61 0.63 0.64
0.54 0.50 0.50 0.53 0.57 0.55 0.54 0.61 0.70 0.85 1.01 1.01 0.76 0.49 0.43 0.47 0.53 0.60 0.63 0.69 0.74 0.77 0.70 0.57 0.52 0.54 0.56 0.57 0.55 0.49 0.41 0.38 0.40 0.43 0.44 0.44 0.48 0.56 0.62 0.64 0.59 0.59 0.61 0.59